Year,Month,Day,Hour,Minute,Value (Times are PST for temperature in C)
2009,07,25,00,00,17.00
2009,07,25,00,01,17.10
2009,07,25,00,02,17.10
2009,07,25,00,03,17.20
2009,07,25,00,04,17.20
2009,07,25,00,05,17.30
2009,07,25,00,06,17.30
2009,07,25,00,07,17.30
2009,07,25,00,08,17.40
2009,07,25,00,09,17.40
2009,07,25,00,10,17.40
2009,07,25,00,11,17.40
2009,07,25,00,12,17.40
2009,07,25,00,13,17.40
2009,07,25,00,14,17.40
2009,07,25,00,15,17.40
2009,07,25,00,16,17.40
2009,07,25,00,17,17.40
2009,07,25,00,18,17.30
2009,07,25,00,19,17.30
2009,07,25,00,20,17.30
2009,07,25,00,21,17.30
2009,07,25,00,22,17.30
2009,07,25,00,23,17.30
2009,07,25,00,24,17.30
2009,07,25,00,25,17.30
2009,07,25,00,26,17.20
2009,07,25,00,27,17.20
2009,07,25,00,28,17.20
2009,07,25,00,29,17.20
2009,07,25,00,30,17.20
2009,07,25,00,31,17.20
2009,07,25,00,32,17.20
2009,07,25,00,33,17.20
2009,07,25,00,34,17.20
2009,07,25,00,35,17.20
2009,07,25,00,36,17.20
2009,07,25,00,37,17.20
2009,07,25,00,38,17.20
2009,07,25,00,39,17.20
2009,07,25,00,40,17.20
2009,07,25,00,41,17.20
2009,07,25,00,42,17.20
2009,07,25,00,43,17.20
2009,07,25,00,44,17.20
2009,07,25,00,45,17.20
2009,07,25,00,46,17.20
2009,07,25,00,47,17.20
2009,07,25,00,48,17.20
2009,07,25,00,49,17.20
2009,07,25,00,50,17.20
2009,07,25,00,51,17.20
2009,07,25,00,52,17.20
2009,07,25,00,53,17.30
2009,07,25,00,54,17.30
2009,07,25,00,55,17.30
2009,07,25,00,56,17.30
2009,07,25,00,57,17.30
2009,07,25,00,58,17.30
2009,07,25,00,59,17.30
2009,07,25,01,00,17.40
2009,07,25,01,01,17.40
2009,07,25,01,02,17.40
2009,07,25,01,03,17.40
2009,07,25,01,04,17.40
2009,07,25,01,05,17.50
2009,07,25,01,06,17.50
2009,07,25,01,07,17.50
2009,07,25,01,08,17.50
2009,07,25,01,09,17.50
2009,07,25,01,10,17.50
2009,07,25,01,11,17.50
2009,07,25,01,12,17.40
2009,07,25,01,13,17.40
2009,07,25,01,14,17.40
2009,07,25,01,15,17.40
2009,07,25,01,16,17.40
2009,07,25,01,17,17.40
2009,07,25,01,18,17.40
2009,07,25,01,19,17.40
2009,07,25,01,20,17.50
2009,07,25,01,21,17.40
2009,07,25,01,22,17.50
2009,07,25,01,23,17.50
2009,07,25,01,24,17.50
2009,07,25,01,25,17.50
2009,07,25,01,26,17.50
2009,07,25,01,27,17.60
2009,07,25,01,28,17.50
2009,07,25,01,29,17.60
2009,07,25,01,30,17.50
2009,07,25,01,31,17.60
2009,07,25,01,32,17.50
2009,07,25,01,33,17.50
2009,07,25,01,34,17.50
2009,07,25,01,35,17.50
2009,07,25,01,36,17.50
2009,07,25,01,37,17.50
2009,07,25,01,38,17.50
2009,07,25,01,39,17.50
2009,07,25,01,40,17.50
2009,07,25,01,41,17.50
2009,07,25,01,42,17.50
2009,07,25,01,43,17.50
2009,07,25,01,44,17.40
2009,07,25,01,45,17.40
2009,07,25,01,46,17.40
2009,07,25,01,47,17.40
2009,07,25,01,48,17.40
2009,07,25,01,49,17.40
2009,07,25,01,50,17.40
2009,07,25,01,51,17.40
2009,07,25,01,52,17.40
2009,07,25,01,53,17.30
2009,07,25,01,54,17.30
2009,07,25,01,55,17.30
2009,07,25,01,56,17.30
2009,07,25,01,57,17.30
2009,07,25,01,58,17.30
2009,07,25,01,59,17.30
2009,07,25,02,00,17.20
2009,07,25,02,01,17.20
2009,07,25,02,02,17.20
2009,07,25,02,03,17.20
2009,07,25,02,04,17.20
2009,07,25,02,05,17.20
2009,07,25,02,06,17.20
2009,07,25,02,07,17.10
2009,07,25,02,08,17.10
2009,07,25,02,09,17.10
2009,07,25,02,10,17.10
2009,07,25,02,11,17.10
2009,07,25,02,12,17.10
2009,07,25,02,13,17.10
2009,07,25,02,14,17.00
2009,07,25,02,15,17.00
2009,07,25,02,16,17.00
2009,07,25,02,17,17.00
2009,07,25,02,18,17.00
2009,07,25,02,19,17.00
2009,07,25,02,20,17.00
2009,07,25,02,21,17.00
2009,07,25,02,22,17.00
2009,07,25,02,23,16.90
2009,07,25,02,24,16.90
2009,07,25,02,25,16.90
2009,07,25,02,26,16.80
2009,07,25,02,27,16.80
2009,07,25,02,28,16.80
2009,07,25,02,29,16.80
2009,07,25,02,30,16.80
2009,07,25,02,31,16.80
2009,07,25,02,32,16.80
2009,07,25,02,33,16.70
2009,07,25,02,34,16.70
2009,07,25,02,35,16.70
2009,07,25,02,36,16.70
2009,07,25,02,37,16.70
2009,07,25,02,38,16.70
2009,07,25,02,39,16.70
2009,07,25,02,40,16.70
2009,07,25,02,41,16.70
2009,07,25,02,42,16.70
2009,07,25,02,43,16.70
2009,07,25,02,44,16.70
2009,07,25,02,45,16.70
2009,07,25,02,46,16.60
2009,07,25,02,47,16.60
2009,07,25,02,48,16.60
2009,07,25,02,49,16.60
2009,07,25,02,50,16.50
2009,07,25,02,51,16.50
2009,07,25,02,52,16.40
2009,07,25,02,53,16.40
2009,07,25,02,54,16.40
2009,07,25,02,55,16.40
2009,07,25,02,56,16.40
2009,07,25,02,57,16.40
2009,07,25,02,58,16.40
2009,07,25,02,59,16.40
2009,07,25,03,00,16.40
2009,07,25,03,01,16.40
2009,07,25,03,02,16.40
2009,07,25,03,03,16.40
2009,07,25,03,04,16.40
2009,07,25,03,05,16.40
2009,07,25,03,06,16.40
2009,07,25,03,07,16.40
2009,07,25,03,08,16.40
2009,07,25,03,09,16.40
2009,07,25,03,10,16.40
2009,07,25,03,11,16.40
2009,07,25,03,12,16.40
2009,07,25,03,13,16.40
2009,07,25,03,14,16.30
2009,07,25,03,15,16.30
2009,07,25,03,16,16.30
2009,07,25,03,17,16.30
2009,07,25,03,18,16.30
2009,07,25,03,19,16.30
2009,07,25,03,20,16.30
2009,07,25,03,21,16.20
2009,07,25,03,22,16.20
2009,07,25,03,23,16.20
2009,07,25,03,24,16.20
2009,07,25,03,25,16.20
2009,07,25,03,26,16.20
2009,07,25,03,27,16.10
2009,07,25,03,28,16.10
2009,07,25,03,29,16.10
2009,07,25,03,30,16.10
2009,07,25,03,31,16.10
2009,07,25,03,32,16.10
2009,07,25,03,33,16.00
2009,07,25,03,34,16.00
2009,07,25,03,35,16.00
2009,07,25,03,36,16.00
2009,07,25,03,37,15.90
2009,07,25,03,38,15.90
2009,07,25,03,39,15.90
2009,07,25,03,40,15.90
2009,07,25,03,41,15.90
2009,07,25,03,42,15.80
2009,07,25,03,43,15.80
2009,07,25,03,44,15.80
2009,07,25,03,45,15.80
2009,07,25,03,46,15.80
2009,07,25,03,47,15.80
2009,07,25,03,48,15.80
2009,07,25,03,49,15.70
2009,07,25,03,50,15.70
2009,07,25,03,51,15.70
2009,07,25,03,52,15.70
2009,07,25,03,53,15.70
2009,07,25,03,54,15.70
2009,07,25,03,55,15.70
2009,07,25,03,56,15.70
2009,07,25,03,57,15.70
2009,07,25,03,58,15.60
2009,07,25,03,59,15.60
2009,07,25,04,00,15.60
2009,07,25,04,01,15.60
2009,07,25,04,02,15.70
2009,07,25,04,03,15.70
2009,07,25,04,04,15.70
2009,07,25,04,05,15.70
2009,07,25,04,06,15.70
2009,07,25,04,07,15.70
2009,07,25,04,08,15.70
2009,07,25,04,09,15.70
2009,07,25,04,10,15.70
2009,07,25,04,11,15.70
2009,07,25,04,12,15.70
2009,07,25,04,13,15.70
2009,07,25,04,14,15.70
2009,07,25,04,15,15.70
2009,07,25,04,16,15.70
2009,07,25,04,17,15.70
2009,07,25,04,18,15.60
2009,07,25,04,19,15.60
2009,07,25,04,20,15.70
2009,07,25,04,21,15.70
2009,07,25,04,22,15.70
2009,07,25,04,23,15.70
2009,07,25,04,24,15.70
2009,07,25,04,25,15.70
2009,07,25,04,26,15.70
2009,07,25,04,27,15.70
2009,07,25,04,28,15.70
2009,07,25,04,29,15.70
2009,07,25,04,30,15.70
2009,07,25,04,31,15.70
2009,07,25,04,32,15.70
2009,07,25,04,33,15.70
2009,07,25,04,34,15.70
2009,07,25,04,35,15.80
2009,07,25,04,36,15.80
2009,07,25,04,37,15.80
2009,07,25,04,38,15.80
2009,07,25,04,39,15.80
2009,07,25,04,40,15.80
2009,07,25,04,41,15.80
2009,07,25,04,42,15.80
2009,07,25,04,43,15.90
2009,07,25,04,44,15.80
2009,07,25,04,45,15.80
2009,07,25,04,46,15.80
2009,07,25,04,47,15.80
2009,07,25,04,48,15.80
2009,07,25,04,49,15.80
2009,07,25,04,50,15.80
2009,07,25,04,51,15.80
2009,07,25,04,52,15.80
2009,07,25,04,53,15.80
2009,07,25,04,54,15.80
2009,07,25,04,55,15.80
2009,07,25,04,56,15.80
2009,07,25,04,57,15.80
2009,07,25,04,58,15.80
2009,07,25,04,59,15.70
2009,07,25,05,00,15.70
2009,07,25,05,01,15.70
2009,07,25,05,02,15.70
2009,07,25,05,03,15.70
2009,07,25,05,04,15.60
2009,07,25,05,05,15.60
2009,07,25,05,06,15.60
2009,07,25,05,07,15.60
2009,07,25,05,08,15.60
2009,07,25,05,09,15.60
2009,07,25,05,10,15.60
2009,07,25,05,11,15.60
2009,07,25,05,12,15.60
2009,07,25,05,13,15.60
2009,07,25,05,14,15.60
2009,07,25,05,15,15.60
2009,07,25,05,16,15.60
2009,07,25,05,17,15.60
2009,07,25,05,18,15.60
2009,07,25,05,19,15.60
2009,07,25,05,20,15.60
2009,07,25,05,21,15.60
2009,07,25,05,22,15.60
2009,07,25,05,23,15.60
2009,07,25,05,24,15.60
2009,07,25,05,25,15.60
2009,07,25,05,26,15.60
2009,07,25,05,27,15.60
2009,07,25,05,28,15.60
2009,07,25,05,29,15.60
2009,07,25,05,30,15.60
2009,07,25,05,31,15.60
2009,07,25,05,32,15.60
2009,07,25,05,33,15.60
2009,07,25,05,34,15.60
2009,07,25,05,35,15.60
2009,07,25,05,36,15.60
2009,07,25,05,37,15.60
2009,07,25,05,38,15.60
2009,07,25,05,39,15.60
2009,07,25,05,40,15.60
2009,07,25,05,41,15.60
2009,07,25,05,42,15.60
2009,07,25,05,43,15.60
2009,07,25,05,44,15.60
2009,07,25,05,45,15.60
2009,07,25,05,46,15.60
2009,07,25,05,47,15.60
2009,07,25,05,48,15.60
2009,07,25,05,49,15.60
2009,07,25,05,50,15.60
2009,07,25,05,51,15.50
2009,07,25,05,52,15.50
2009,07,25,05,53,15.50
2009,07,25,05,54,15.50
2009,07,25,05,55,15.50
2009,07,25,05,56,15.50
2009,07,25,05,57,15.50
2009,07,25,05,58,15.50
2009,07,25,05,59,15.60
2009,07,25,06,00,15.60
2009,07,25,06,01,15.60
2009,07,25,06,02,15.60
2009,07,25,06,03,15.60
2009,07,25,06,04,15.60
2009,07,25,06,05,15.60
2009,07,25,06,06,15.60
2009,07,25,06,07,15.60
2009,07,25,06,08,15.60
2009,07,25,06,09,15.60
2009,07,25,06,10,15.70
2009,07,25,06,11,15.70
2009,07,25,06,12,15.70
2009,07,25,06,13,15.70
2009,07,25,06,14,15.70
2009,07,25,06,15,15.70
2009,07,25,06,16,15.70
2009,07,25,06,17,15.70
2009,07,25,06,18,15.70
2009,07,25,06,19,15.70
2009,07,25,06,20,15.70
2009,07,25,06,21,15.70
2009,07,25,06,22,15.60
2009,07,25,06,23,15.60
2009,07,25,06,24,15.60
2009,07,25,06,25,15.60
2009,07,25,06,26,15.60
2009,07,25,06,27,15.60
2009,07,25,06,28,15.60
2009,07,25,06,29,15.60
2009,07,25,06,30,15.60
2009,07,25,06,31,15.60
2009,07,25,06,32,15.60
2009,07,25,06,33,15.60
2009,07,25,06,34,15.60
2009,07,25,06,35,15.60
2009,07,25,06,36,15.60
2009,07,25,06,37,15.60
2009,07,25,06,38,15.60
2009,07,25,06,39,15.60
2009,07,25,06,40,15.60
2009,07,25,06,41,15.60
2009,07,25,06,42,15.60
2009,07,25,06,43,15.60
2009,07,25,06,44,15.60
2009,07,25,06,45,15.60
2009,07,25,06,46,15.60
2009,07,25,06,47,15.60
2009,07,25,06,48,15.60
2009,07,25,06,49,15.60
2009,07,25,06,50,15.60
2009,07,25,06,51,15.60
2009,07,25,06,52,15.60
2009,07,25,06,53,15.60
2009,07,25,06,54,15.60
2009,07,25,06,55,15.60
2009,07,25,06,56,15.60
2009,07,25,06,57,15.60
2009,07,25,06,58,15.60
2009,07,25,06,59,15.60
2009,07,25,07,00,15.60
2009,07,25,07,01,15.70
2009,07,25,07,02,15.70
2009,07,25,07,03,15.70
2009,07,25,07,04,15.70
2009,07,25,07,05,15.70
2009,07,25,07,06,15.70
2009,07,25,07,07,15.70
2009,07,25,07,08,15.70
2009,07,25,07,09,15.80
2009,07,25,07,10,15.80
2009,07,25,07,11,15.80
2009,07,25,07,12,15.90
2009,07,25,07,13,15.90
2009,07,25,07,14,16.00
2009,07,25,07,15,16.00
2009,07,25,07,16,16.10
2009,07,25,07,17,16.10
2009,07,25,07,18,16.20
2009,07,25,07,19,16.20
2009,07,25,07,20,16.30
2009,07,25,07,21,16.30
2009,07,25,07,22,16.40
2009,07,25,07,23,16.40
2009,07,25,07,24,16.40
2009,07,25,07,25,16.40
2009,07,25,07,26,16.50
2009,07,25,07,27,16.60
2009,07,25,07,28,16.60
2009,07,25,07,29,16.60
2009,07,25,07,30,16.70
2009,07,25,07,31,16.70
2009,07,25,07,32,16.70
2009,07,25,07,33,16.70
2009,07,25,07,34,16.80
2009,07,25,07,35,16.80
2009,07,25,07,36,16.80
2009,07,25,07,37,16.80
2009,07,25,07,38,16.80
2009,07,25,07,39,16.90
2009,07,25,07,40,16.90
2009,07,25,07,41,16.90
2009,07,25,07,42,16.90
2009,07,25,07,43,17.00
2009,07,25,07,44,17.00
2009,07,25,07,45,17.10
2009,07,25,07,46,17.20
2009,07,25,07,47,17.20
2009,07,25,07,48,17.20
2009,07,25,07,49,17.20
2009,07,25,07,50,17.30
2009,07,25,07,51,17.30
2009,07,25,07,52,17.30
2009,07,25,07,53,17.40
2009,07,25,07,54,17.40
2009,07,25,07,55,17.40
2009,07,25,07,56,17.40
2009,07,25,07,57,17.40
2009,07,25,07,58,17.50
2009,07,25,07,59,17.50
2009,07,25,08,00,17.50
2009,07,25,08,01,17.60
2009,07,25,08,02,17.60
2009,07,25,08,03,17.60
2009,07,25,08,04,17.60
2009,07,25,08,05,17.60
2009,07,25,08,06,17.70
2009,07,25,08,07,17.70
2009,07,25,08,08,17.70
2009,07,25,08,09,17.80
2009,07,25,08,10,17.80
2009,07,25,08,11,17.80
2009,07,25,08,12,17.80
2009,07,25,08,13,17.80
2009,07,25,08,14,17.90
2009,07,25,08,15,17.90
2009,07,25,08,16,18.00
2009,07,25,08,17,18.00
2009,07,25,08,18,18.10
2009,07,25,08,19,18.10
2009,07,25,08,20,18.20
2009,07,25,08,21,18.20
2009,07,25,08,22,18.30
2009,07,25,08,23,18.30
2009,07,25,08,24,18.40
2009,07,25,08,25,18.40
2009,07,25,08,26,18.50
2009,07,25,08,27,18.60
2009,07,25,08,28,18.60
2009,07,25,08,29,18.60
2009,07,25,08,30,18.70
2009,07,25,08,31,18.80
2009,07,25,08,32,18.80
2009,07,25,08,33,18.80
2009,07,25,08,34,18.90
2009,07,25,08,35,18.90
2009,07,25,08,36,19.00
2009,07,25,08,37,19.00
2009,07,25,08,38,19.10
2009,07,25,08,39,19.10
2009,07,25,08,40,19.10
2009,07,25,08,41,19.20
2009,07,25,08,42,19.20
2009,07,25,08,43,19.20
2009,07,25,08,44,19.30
2009,07,25,08,45,19.30
2009,07,25,08,46,19.40
2009,07,25,08,47,19.40
2009,07,25,08,48,19.40
2009,07,25,08,49,19.50
2009,07,25,08,50,19.50
2009,07,25,08,51,19.50
2009,07,25,08,52,19.50
2009,07,25,08,53,19.60
2009,07,25,08,54,19.60
2009,07,25,08,55,19.60
2009,07,25,08,56,19.60
2009,07,25,08,57,19.60
2009,07,25,08,58,19.60
2009,07,25,08,59,19.60
2009,07,25,09,00,19.70
2009,07,25,09,01,19.70
2009,07,25,09,02,19.70
2009,07,25,09,03,19.70
2009,07,25,09,04,19.80
2009,07,25,09,05,19.80
2009,07,25,09,06,19.80
2009,07,25,09,07,19.80
2009,07,25,09,08,19.80
2009,07,25,09,09,19.90
2009,07,25,09,10,19.90
2009,07,25,09,11,19.90
2009,07,25,09,12,19.90
2009,07,25,09,13,19.90
2009,07,25,09,14,19.90
2009,07,25,09,15,19.90
2009,07,25,09,16,19.90
2009,07,25,09,17,20.00
2009,07,25,09,18,20.00
2009,07,25,09,19,20.00
2009,07,25,09,20,20.00
2009,07,25,09,21,20.00
2009,07,25,09,22,20.00
2009,07,25,09,23,20.00
2009,07,25,09,24,20.00
2009,07,25,09,25,20.00
2009,07,25,09,26,20.00
2009,07,25,09,27,20.00
2009,07,25,09,28,20.10
2009,07,25,09,29,20.10
2009,07,25,09,30,20.10
2009,07,25,09,31,20.20
2009,07,25,09,32,20.20
2009,07,25,09,33,20.20
2009,07,25,09,34,20.30
2009,07,25,09,35,20.40
2009,07,25,09,36,20.40
2009,07,25,09,37,20.40
2009,07,25,09,38,20.40
2009,07,25,09,39,20.50
2009,07,25,09,40,20.90
2009,07,25,09,41,21.00
2009,07,25,09,42,21.00
2009,07,25,09,43,21.10
2009,07,25,09,44,21.10
2009,07,25,09,45,21.20
2009,07,25,09,46,21.20
2009,07,25,09,47,21.30
2009,07,25,09,48,21.30
2009,07,25,09,49,21.30
2009,07,25,09,50,21.40
2009,07,25,09,51,21.50
2009,07,25,09,52,21.50
2009,07,25,09,53,21.60
2009,07,25,09,54,21.70
2009,07,25,09,55,21.80
2009,07,25,09,56,21.80
2009,07,25,09,57,21.90
2009,07,25,09,58,22.00
2009,07,25,09,59,22.00
2009,07,25,10,00,22.10
2009,07,25,10,01,22.10
2009,07,25,10,02,22.20
2009,07,25,10,03,22.20
2009,07,25,10,04,22.30
2009,07,25,10,05,22.40
2009,07,25,10,06,22.50
2009,07,25,10,07,22.50
2009,07,25,10,08,22.50
2009,07,25,10,09,22.50
2009,07,25,10,10,22.50
2009,07,25,10,11,22.60
2009,07,25,10,12,22.50
2009,07,25,10,13,22.50
2009,07,25,10,14,22.60
2009,07,25,10,15,22.60
2009,07,25,10,16,22.50
2009,07,25,10,17,22.40
2009,07,25,10,18,22.40
2009,07,25,10,19,22.40
2009,07,25,10,20,22.40
2009,07,25,10,21,22.50
2009,07,25,10,22,22.60
2009,07,25,10,23,22.70
2009,07,25,10,24,22.70
2009,07,25,10,25,22.80
2009,07,25,10,26,22.70
2009,07,25,10,27,22.70
2009,07,25,10,28,22.60
2009,07,25,10,29,22.60
2009,07,25,10,30,22.50
2009,07,25,10,31,22.40
2009,07,25,10,32,22.40
2009,07,25,10,33,22.30
2009,07,25,10,34,22.20
2009,07,25,10,35,22.20
2009,07,25,10,36,22.10
2009,07,25,10,37,22.00
2009,07,25,10,38,21.90
2009,07,25,10,39,21.80
2009,07,25,10,40,21.80
2009,07,25,10,41,21.70
2009,07,25,10,42,21.60
2009,07,25,10,43,21.60
2009,07,25,10,44,21.60
2009,07,25,10,45,21.70
2009,07,25,10,46,21.70
2009,07,25,10,47,21.80
2009,07,25,10,48,21.80
2009,07,25,10,49,21.90
2009,07,25,10,50,22.10
2009,07,25,10,51,22.20
2009,07,25,10,52,22.30
2009,07,25,10,53,22.40
2009,07,25,10,54,22.50
2009,07,25,10,55,22.60
2009,07,25,10,56,22.70
2009,07,25,10,57,22.80
2009,07,25,10,58,22.90
2009,07,25,10,59,23.00
2009,07,25,11,00,23.00
2009,07,25,11,01,23.10
2009,07,25,11,02,23.10
2009,07,25,11,03,23.10
2009,07,25,11,04,23.10
2009,07,25,11,05,23.20
2009,07,25,11,06,23.20
2009,07,25,11,07,23.30
2009,07,25,11,08,23.30
2009,07,25,11,09,23.40
2009,07,25,11,10,23.40
2009,07,25,11,11,23.50
2009,07,25,11,12,23.50
2009,07,25,11,13,23.60
2009,07,25,11,14,23.70
2009,07,25,11,15,23.80
2009,07,25,11,16,23.80
2009,07,25,11,17,23.90
2009,07,25,11,18,24.10
2009,07,25,11,19,24.20
2009,07,25,11,20,24.30
2009,07,25,11,21,24.30
2009,07,25,11,22,24.30
2009,07,25,11,23,24.30
2009,07,25,11,24,24.30
2009,07,25,11,25,24.30
2009,07,25,11,26,24.30
2009,07,25,11,27,24.20
2009,07,25,11,28,24.20
2009,07,25,11,29,24.10
2009,07,25,11,30,24.10
2009,07,25,11,31,24.10
2009,07,25,11,32,24.10
2009,07,25,11,33,24.10
2009,07,25,11,34,24.10
2009,07,25,11,35,24.20
2009,07,25,11,36,24.20
2009,07,25,11,37,24.30
2009,07,25,11,38,24.30
2009,07,25,11,39,24.30
2009,07,25,11,40,24.40
2009,07,25,11,41,24.40
2009,07,25,11,42,24.50
2009,07,25,11,43,24.50
2009,07,25,11,44,24.50
2009,07,25,11,45,24.60
2009,07,25,11,46,24.60
2009,07,25,11,47,24.70
2009,07,25,11,48,24.70
2009,07,25,11,49,24.80
2009,07,25,11,50,24.80
2009,07,25,11,51,24.80
2009,07,25,11,52,24.90
2009,07,25,11,53,24.90
2009,07,25,11,54,25.00
2009,07,25,11,55,25.00
2009,07,25,11,56,25.10
2009,07,25,11,57,25.10
2009,07,25,11,58,25.10
2009,07,25,11,59,25.10
2009,07,25,12,00,25.10
2009,07,25,12,01,25.10
2009,07,25,12,02,25.10
2009,07,25,12,03,25.00
2009,07,25,12,04,24.90
2009,07,25,12,05,24.80
2009,07,25,12,06,24.70
2009,07,25,12,07,24.70
2009,07,25,12,08,24.70
2009,07,25,12,09,24.70
2009,07,25,12,10,24.70
2009,07,25,12,11,24.70
2009,07,25,12,12,24.70
2009,07,25,12,13,24.70
2009,07,25,12,14,24.70
2009,07,25,12,15,24.60
2009,07,25,12,16,24.60
2009,07,25,12,17,24.60
2009,07,25,12,18,24.60
2009,07,25,12,19,24.70
2009,07,25,12,20,24.80
2009,07,25,12,21,24.80
2009,07,25,12,22,24.90
2009,07,25,12,23,25.00
2009,07,25,12,24,25.10
2009,07,25,12,25,25.30
2009,07,25,12,26,25.40
2009,07,25,12,27,25.50
2009,07,25,12,28,25.60
2009,07,25,12,29,25.70
2009,07,25,12,30,25.80
2009,07,25,12,31,25.90
2009,07,25,12,32,25.90
2009,07,25,12,33,26.00
2009,07,25,12,34,26.10
2009,07,25,12,35,26.20
2009,07,25,12,36,26.30
2009,07,25,12,37,26.30
2009,07,25,12,38,26.30
2009,07,25,12,39,26.30
2009,07,25,12,40,26.20
2009,07,25,12,41,26.20
2009,07,25,12,42,26.30
2009,07,25,12,43,26.30
2009,07,25,12,44,26.40
2009,07,25,12,45,26.40
2009,07,25,12,46,26.40
2009,07,25,12,47,26.50
2009,07,25,12,48,26.60
2009,07,25,12,49,26.60
2009,07,25,12,50,26.70
2009,07,25,12,51,26.80
2009,07,25,12,52,26.90
2009,07,25,12,53,26.90
2009,07,25,12,54,27.00
2009,07,25,12,55,27.00
2009,07,25,12,56,27.10
2009,07,25,12,57,27.10
2009,07,25,12,58,27.20
2009,07,25,12,59,27.30
2009,07,25,13,00,27.30
2009,07,25,13,01,27.30
2009,07,25,13,02,27.30
2009,07,25,13,03,27.30
2009,07,25,13,04,27.30
2009,07,25,13,05,27.30
2009,07,25,13,06,27.30
2009,07,25,13,07,27.30
2009,07,25,13,08,27.20
2009,07,25,13,09,27.20
2009,07,25,13,10,27.20
2009,07,25,13,11,27.20
2009,07,25,13,12,27.20
2009,07,25,13,13,27.30
2009,07,25,13,14,27.30
2009,07,25,13,15,27.40
2009,07,25,13,16,27.40
2009,07,25,13,17,27.40
2009,07,25,13,18,27.40
2009,07,25,13,19,27.40
2009,07,25,13,20,27.40
2009,07,25,13,21,27.40
2009,07,25,13,22,27.50
2009,07,25,13,23,27.50
2009,07,25,13,24,27.50
2009,07,25,13,25,27.50
2009,07,25,13,26,27.60
2009,07,25,13,27,27.60
2009,07,25,13,28,27.60
2009,07,25,13,29,27.60
2009,07,25,13,30,27.60
2009,07,25,13,31,27.60
2009,07,25,13,32,27.60
2009,07,25,13,33,27.50
2009,07,25,13,34,27.50
2009,07,25,13,35,27.40
2009,07,25,13,36,27.40
2009,07,25,13,37,27.30
2009,07,25,13,38,27.20
2009,07,25,13,39,27.20
2009,07,25,13,40,27.20
2009,07,25,13,41,27.00
2009,07,25,13,42,27.00
2009,07,25,13,43,26.90
2009,07,25,13,44,26.80
2009,07,25,13,45,26.70
2009,07,25,13,46,26.70
2009,07,25,13,47,26.70
2009,07,25,13,48,26.70
2009,07,25,13,49,26.80
2009,07,25,13,50,26.80
2009,07,25,13,51,26.90
2009,07,25,13,52,27.00
2009,07,25,13,53,27.10
2009,07,25,13,54,27.20
2009,07,25,13,55,27.30
2009,07,25,13,56,27.40
2009,07,25,13,57,27.50
2009,07,25,13,58,27.50
2009,07,25,13,59,27.60
2009,07,25,14,00,27.60
2009,07,25,14,01,27.60
2009,07,25,14,02,27.60
2009,07,25,14,03,27.60
2009,07,25,14,04,27.60
2009,07,25,14,05,27.60
2009,07,25,14,06,27.60
2009,07,25,14,07,27.60
2009,07,25,14,08,27.50
2009,07,25,14,09,27.40
2009,07,25,14,10,27.40
2009,07,25,14,11,27.40
2009,07,25,14,12,27.40
2009,07,25,14,13,27.30
2009,07,25,14,14,27.30
2009,07,25,14,15,27.30
2009,07,25,14,16,27.30
2009,07,25,14,17,27.30
2009,07,25,14,18,27.30
2009,07,25,14,19,27.30
2009,07,25,14,20,27.30
2009,07,25,14,21,27.30
2009,07,25,14,22,27.30
2009,07,25,14,23,27.30
2009,07,25,14,24,27.20
2009,07,25,14,25,27.30
2009,07,25,14,26,27.30
2009,07,25,14,27,27.40
2009,07,25,14,28,27.50
2009,07,25,14,29,27.50
2009,07,25,14,30,27.50
2009,07,25,14,31,27.60
2009,07,25,14,32,27.60
2009,07,25,14,33,27.70
2009,07,25,14,34,27.70
2009,07,25,14,35,27.80
2009,07,25,14,36,27.80
2009,07,25,14,37,27.90
2009,07,25,14,38,28.00
2009,07,25,14,39,28.00
2009,07,25,14,40,28.20
2009,07,25,14,41,28.20
2009,07,25,14,42,28.20
2009,07,25,14,43,28.10
2009,07,25,14,44,28.10
2009,07,25,14,45,28.00
2009,07,25,14,46,28.10
2009,07,25,14,47,28.10
2009,07,25,14,48,28.10
2009,07,25,14,49,28.10
2009,07,25,14,50,28.10
2009,07,25,14,51,28.20
2009,07,25,14,52,28.30
2009,07,25,14,53,28.40
2009,07,25,14,54,28.40
2009,07,25,14,55,28.60
2009,07,25,14,56,28.70
2009,07,25,14,57,28.80
2009,07,25,14,58,28.90
2009,07,25,14,59,29.00
2009,07,25,15,00,29.00
2009,07,25,15,01,29.10
2009,07,25,15,02,29.10
2009,07,25,15,03,29.20
2009,07,25,15,04,29.20
2009,07,25,15,05,29.30
2009,07,25,15,06,29.30
2009,07,25,15,07,29.40
2009,07,25,15,08,29.40
2009,07,25,15,09,29.50
2009,07,25,15,10,29.60
2009,07,25,15,11,29.70
2009,07,25,15,12,29.70
2009,07,25,15,13,29.80
2009,07,25,15,14,29.80
2009,07,25,15,15,29.70
2009,07,25,15,16,29.60
2009,07,25,15,17,29.40
2009,07,25,15,18,29.30
2009,07,25,15,19,29.20
2009,07,25,15,20,29.10
2009,07,25,15,21,29.00
2009,07,25,15,22,28.90
2009,07,25,15,23,28.80
2009,07,25,15,24,28.80
2009,07,25,15,25,28.70
2009,07,25,15,26,28.80
2009,07,25,15,27,28.80
2009,07,25,15,28,28.90
2009,07,25,15,29,29.00
2009,07,25,15,30,29.00
2009,07,25,15,31,29.10
2009,07,25,15,32,29.10
2009,07,25,15,33,29.10
2009,07,25,15,34,29.20
2009,07,25,15,35,29.30
2009,07,25,15,36,29.40
2009,07,25,15,37,29.50
2009,07,25,15,38,29.50
2009,07,25,15,39,29.60
2009,07,25,15,40,29.60
2009,07,25,15,41,29.70
2009,07,25,15,42,29.70
2009,07,25,15,43,29.70
2009,07,25,15,44,29.80
2009,07,25,15,45,29.80
2009,07,25,15,46,29.90
2009,07,25,15,47,29.90
2009,07,25,15,48,30.00
2009,07,25,15,49,30.00
2009,07,25,15,50,30.00
2009,07,25,15,51,30.00
2009,07,25,15,52,29.90
2009,07,25,15,53,29.90
2009,07,25,15,54,29.90
2009,07,25,15,55,29.80
2009,07,25,15,56,29.70
2009,07,25,15,57,29.60
2009,07,25,15,58,29.50
2009,07,25,15,59,29.30
2009,07,25,16,00,29.30
2009,07,25,16,01,29.20
2009,07,25,16,02,29.10
2009,07,25,16,03,29.10
2009,07,25,16,04,29.00
2009,07,25,16,05,29.00
2009,07,25,16,06,28.90
2009,07,25,16,07,28.90
2009,07,25,16,08,28.90
2009,07,25,16,09,28.90
2009,07,25,16,10,28.90
2009,07,25,16,11,28.90
2009,07,25,16,12,28.90
2009,07,25,16,13,28.90
2009,07,25,16,14,28.90
2009,07,25,16,15,28.90
2009,07,25,16,16,28.90
2009,07,25,16,17,29.00
2009,07,25,16,18,29.00
2009,07,25,16,19,29.00
2009,07,25,16,20,29.10
2009,07,25,16,21,29.00
2009,07,25,16,22,28.90
2009,07,25,16,23,28.90
2009,07,25,16,24,28.80
2009,07,25,16,25,28.80
2009,07,25,16,26,28.80
2009,07,25,16,27,28.80
2009,07,25,16,28,28.80
2009,07,25,16,29,28.80
2009,07,25,16,30,28.90
2009,07,25,16,31,29.00
2009,07,25,16,32,29.10
2009,07,25,16,33,29.10
2009,07,25,16,34,29.20
2009,07,25,16,35,29.20
2009,07,25,16,36,29.10
2009,07,25,16,37,29.00
2009,07,25,16,38,28.90
2009,07,25,16,39,28.80
2009,07,25,16,40,28.80
2009,07,25,16,41,28.70
2009,07,25,16,42,28.70
2009,07,25,16,43,28.70
2009,07,25,16,44,28.70
2009,07,25,16,45,28.70
2009,07,25,16,46,28.70
2009,07,25,16,47,28.60
2009,07,25,16,48,28.50
2009,07,25,16,49,28.40
2009,07,25,16,50,28.30
2009,07,25,16,51,28.20
2009,07,25,16,52,28.00
2009,07,25,16,53,27.90
2009,07,25,16,54,27.90
2009,07,25,16,55,27.80
2009,07,25,16,56,27.80
2009,07,25,16,57,27.80
2009,07,25,16,58,27.70
2009,07,25,16,59,27.50
2009,07,25,17,00,27.40
2009,07,25,17,01,27.40
2009,07,25,17,02,27.40
2009,07,25,17,03,27.30
2009,07,25,17,04,27.30
2009,07,25,17,05,27.30
2009,07,25,17,06,27.30
2009,07,25,17,07,27.30
2009,07,25,17,08,27.40
2009,07,25,17,09,27.40
2009,07,25,17,10,27.40
2009,07,25,17,11,27.40
2009,07,25,17,12,27.30
2009,07,25,17,13,27.20
2009,07,25,17,14,27.20
2009,07,25,17,15,27.20
2009,07,25,17,16,27.20
2009,07,25,17,17,27.30
2009,07,25,17,18,27.40
2009,07,25,17,19,27.50